TimeEDT,TemperatureF,Dew PointF,Humidity,Sea Level PressureIn,VisibilityMPH,Wind Direction,Wind SpeedMPH,Gust SpeedMPH,PrecipitationIn,Events,Conditions,WindDirDegrees,DateUTC
12:15 AM,63.5,63.1,99,30.27,7.0,East,3.5,-,N/A,,Clear,90,2013-07-16 04:15:00
12:35 AM,63.9,63.3,98,30.27,7.0,Calm,Calm,-,N/A,,Clear,0,2013-07-16 04:35:00
12:55 AM,63.1,62.8,99,30.27,5.0,ESE,3.5,-,N/A,,Clear,120,2013-07-16 04:55:00
1:15 AM,63.5,63.1,99,30.27,7.0,ESE,3.5,-,N/A,,Clear,110,2013-07-16 05:15:00
1:35 AM,63.5,63.0,98,30.27,7.0,Calm,Calm,-,N/A,,Clear,0,2013-07-16 05:35:00
1:55 AM,62.4,62.4,100,30.27,4.0,Calm,Calm,-,N/A,,Clear,0,2013-07-16 05:55:00
2:14 AM,62.6,62.6,100,30.27,5.0,Calm,Calm,-,N/A,,Clear,0,2013-07-16 06:14:00
2:35 AM,62.1,62.1,100,30.27,4.0,Calm,Calm,-,N/A,,Clear,0,2013-07-16 06:35:00
2:55 AM,61.9,61.9,100,30.27,7.0,Calm,Calm,-,N/A,,Clear,0,2013-07-16 06:55:00
3:14 AM,61.3,61.3,100,30.27,7.0,Calm,Calm,-,N/A,,Clear,0,2013-07-16 07:14:00
3:35 AM,61.7,61.7,100,30.27,7.0,Calm,Calm,-,N/A,,Clear,0,2013-07-16 07:35:00
3:55 AM,61.5,61.0,98,30.27,10.0,Calm,Calm,-,N/A,,Clear,0,2013-07-16 07:55:00
4:15 AM,61.0,60.8,99,30.27,7.0,Calm,Calm,-,N/A,,Clear,0,2013-07-16 08:15:00
4:35 AM,61.3,60.8,98,30.27,10.0,Calm,Calm,-,N/A,,Clear,0,2013-07-16 08:35:00
4:55 AM,60.8,60.1,97,30.27,10.0,Calm,Calm,-,N/A,,Clear,0,2013-07-16 08:55:00
5:15 AM,61.2,60.6,98,30.27,10.0,Calm,Calm,-,N/A,,Clear,0,2013-07-16 09:15:00
5:35 AM,61.3,60.3,96,30.28,10.0,Calm,Calm,-,N/A,,Clear,0,2013-07-16 09:35:00
5:55 AM,60.8,59.7,96,30.28,10.0,Calm,Calm,-,N/A,,Clear,0,2013-07-16 09:55:00
6:15 AM,61.7,60.6,96,30.28,10.0,Calm,Calm,-,N/A,,Clear,0,2013-07-16 10:15:00
6:35 AM,60.4,59.4,96,30.28,10.0,Calm,Calm,-,N/A,,Clear,0,2013-07-16 10:35:00
6:54 AM,62.1,60.8,96,30.28,10.0,Calm,Calm,-,N/A,,Clear,0,2013-07-16 10:54:00
7:15 AM,63.1,62.1,96,30.28,10.0,Calm,Calm,-,N/A,,Clear,0,2013-07-16 11:15:00
7:35 AM,66.7,63.9,90,30.28,10.0,Calm,Calm,-,N/A,,Clear,0,2013-07-16 11:35:00
7:55 AM,70.0,64.6,83,30.28,10.0,Calm,Calm,-,N/A,,Clear,0,2013-07-16 11:55:00
8:15 AM,73.9,63.1,69,30.28,10.0,SW,3.5,-,N/A,,Clear,220,2013-07-16 12:15:00
8:34 AM,75.4,61.9,63,30.28,10.0,SSW,4.6,-,N/A,,Clear,210,2013-07-16 12:34:00
8:55 AM,76.8,61.0,58,30.28,10.0,SW,4.6,-,N/A,,Clear,220,2013-07-16 12:55:00
9:15 AM,78.1,60.3,54,30.28,10.0,WSW,4.6,-,N/A,,Clear,240,2013-07-16 13:15:00
9:35 AM,79.7,60.4,52,30.28,10.0,WSW,5.8,-,N/A,,Clear,250,2013-07-16 13:35:00
9:55 AM,80.8,60.8,50,30.28,10.0,SSW,5.8,-,N/A,,Clear,200,2013-07-16 13:55:00
10:15 AM,80.2,60.4,51,30.27,10.0,WSW,8.1,-,N/A,,Clear,240,2013-07-16 14:15:00
10:35 AM,81.7,59.5,47,30.28,10.0,SW,9.2,-,N/A,,Clear,230,2013-07-16 14:35:00
10:55 AM,82.8,56.7,41,30.27,10.0,SW,6.9,-,N/A,,Clear,230,2013-07-16 14:55:00
11:15 AM,83.3,56.7,40,30.28,10.0,SW,6.9,-,N/A,,Clear,230,2013-07-16 15:15:00
11:35 AM,83.1,58.8,44,30.27,10.0,SW,9.2,-,N/A,,Clear,230,2013-07-16 15:35:00
11:55 AM,82.9,60.6,47,30.27,10.0,WSW,10.4,-,N/A,,Clear,240,2013-07-16 15:55:00
12:14 PM,82.6,61.2,48,30.27,10.0,SW,11.5,-,N/A,,Clear,220,2013-07-16 16:14:00
12:35 PM,81.9,62.4,52,30.27,10.0,SSW,11.5,-,N/A,,Clear,210,2013-07-16 16:35:00
12:55 PM,83.3,62.1,49,30.26,10.0,WSW,10.4,16.1,N/A,,Clear,240,2013-07-16 16:55:00
1:15 PM,84.0,62.4,48,30.26,10.0,SW,10.4,16.1,N/A,,Clear,220,2013-07-16 17:15:00
1:35 PM,81.7,62.4,52,30.26,10.0,SW,12.7,17.3,N/A,,Clear,230,2013-07-16 17:35:00
1:55 PM,82.6,63.3,52,30.26,10.0,SW,15.0,19.6,N/A,,Clear,220,2013-07-16 17:55:00
2:15 PM,83.1,63.7,52,30.26,10.0,SSW,11.5,-,N/A,,Clear,210,2013-07-16 18:15:00
2:35 PM,82.2,65.1,56,30.25,10.0,SW,15.0,19.6,N/A,,Clear,220,2013-07-16 18:35:00
2:54 PM,82.0,65.5,57,30.24,10.0,SW,11.5,19.6,N/A,,Clear,230,2013-07-16 18:54:00
3:15 PM,82.8,66.2,57,30.23,10.0,SSW,12.7,-,N/A,,Clear,200,2013-07-16 19:15:00
3:34 PM,81.9,66.7,60,30.23,10.0,SSW,11.5,16.1,N/A,,Clear,210,2013-07-16 19:34:00
3:55 PM,83.5,67.1,58,30.23,10.0,SW,12.7,16.1,N/A,,Clear,220,2013-07-16 19:55:00
4:15 PM,82.6,67.5,60,30.22,10.0,SW,12.7,19.6,N/A,,Clear,230,2013-07-16 20:15:00
4:35 PM,83.5,67.6,59,30.23,10.0,SW,9.2,16.1,N/A,,Clear,220,2013-07-16 20:35:00
4:55 PM,78.8,67.3,68,30.24,10.0,SW,11.5,18.4,N/A,,Clear,220,2013-07-16 20:55:00
5:15 PM,80.1,67.5,65,30.23,10.0,SW,11.5,-,N/A,,Clear,220,2013-07-16 21:15:00
5:35 PM,76.8,67.5,73,30.23,10.0,SSW,10.4,17.3,N/A,,Clear,210,2013-07-16 21:35:00
5:55 PM,75.9,67.5,75,30.23,10.0,SSW,8.1,-,N/A,,Clear,210,2013-07-16 21:55:00
6:15 PM,76.3,67.6,74,30.22,10.0,SSW,12.7,17.3,N/A,,Scattered Clouds,210,2013-07-16 22:15:00
6:35 PM,76.3,68.0,75,30.21,10.0,SSW,10.4,18.4,N/A,,Mostly Cloudy,200,2013-07-16 22:35:00
6:55 PM,76.8,68.0,74,30.20,10.0,SSW,10.4,-,N/A,,Scattered Clouds,210,2013-07-16 22:55:00
7:15 PM,76.1,68.0,76,30.20,10.0,SW,8.1,18.4,N/A,,Clear,220,2013-07-16 23:15:00
7:35 PM,74.8,68.0,79,30.20,10.0,SSW,12.7,18.4,N/A,,Clear,210,2013-07-16 23:35:00
7:54 PM,76.3,68.2,76,30.20,10.0,SW,17.3,23.0,N/A,,Clear,220,2013-07-16 23:54:00
8:15 PM,75.4,67.5,76,30.20,10.0,SW,16.1,24.2,N/A,,Clear,220,2013-07-17 00:15:00
8:35 PM,73.4,67.1,81,30.20,10.0,SW,12.7,21.9,N/A,,Clear,220,2013-07-17 00:35:00
8:55 PM,72.5,67.1,83,30.19,10.0,SW,13.8,18.4,N/A,,Clear,230,2013-07-17 00:55:00
9:15 PM,71.6,67.1,86,30.20,10.0,SW,12.7,17.3,N/A,,Clear,220,2013-07-17 01:15:00
9:34 PM,70.9,67.1,88,30.18,10.0,SW,13.8,19.6,N/A,,Clear,220,2013-07-17 01:34:00
9:55 PM,70.5,67.1,89,30.19,10.0,SW,13.8,19.6,N/A,,Clear,220,2013-07-17 01:55:00
10:15 PM,70.2,67.1,90,30.19,10.0,SW,15.0,20.7,N/A,,Clear,220,2013-07-17 02:15:00
10:35 PM,70.2,67.3,91,30.19,10.0,SSW,13.8,23.0,N/A,,Clear,210,2013-07-17 02:35:00
10:55 PM,70.2,67.3,91,30.20,10.0,SW,16.1,21.9,N/A,,Clear,220,2013-07-17 02:55:00
11:15 PM,69.8,67.1,91,30.20,10.0,SSW,12.7,18.4,N/A,,Clear,210,2013-07-17 03:15:00
11:35 PM,69.4,66.7,91,30.20,10.0,SW,15.0,19.6,N/A,,Clear,220,2013-07-17 03:35:00
11:55 PM,68.9,66.6,92,30.20,10.0,SW,11.5,16.1,N/A,,Clear,220,2013-07-17 03:55:00